Regional Weather Roundup
Issued by NWS Sioux Falls, SD

Home | Current Version | Previous Version | Text Only | Print | Product List | Glossary On
Versions: 1 2 3 4 5 6 7 8 9 10 11 12 13 14 15 16 17 18 19 20 21 22 23 24 25 26 27 28 29 30 31 32 33 34 35 36 37 38 39 40 41 42 43 44 45 46 47 48 49 50
000
ASUS43 KFSD 101710
RWRFSD

WEATHER ROUNDUP FOR SE SOUTH DAKOTA/SW MINNESOTA/NW IOWA
NATIONAL WEATHER SERVICE SIOUX FALLS SD
1100 AM CST SAT DEC 10 2016

NOTE: "FAIR" INDICATES FEW OR NO CLOUDS BELOW 12,000 FEET WITH NO
SIGNIFICANT WEATHER AND OR OBSTRUCTIONS TO VISIBILITY.


SDZ038>040-050-052>070-101800-
SOUTHEAST SOUTH DAKOTA

CITY           SKY/WX    TMP DP  RH WIND       PRES   REMARKS
BROOKINGS      LGT SNOW   6   2  83 E8        30.31R VSB 1   WCI  -7
CHAMBERLAIN    LGT SNOW   9   5  84 E10       30.19F WCI  -6
HURON          SNOW       8   5  87 E8        30.31F VSB 1/2 WCI  -4
MADISON        LGT SNOW   9   7  92 E13       30.28F WCI  -7
MITCHELL       LGT SNOW  13  10  88 E10       30.29F VSB 3/4 WCI   0
SIOUX FALLS    LGT SNOW  12   9  87 E9        30.29F VSB 1   WCI   0
WINNER         CLOUDY    10   5  80 E16       30.11F WCI  -7
YANKTON        CLOUDY    18  14  86 SE12      30.26F WCI   5
$$

MNZ071-072-080-081-089-090-097-098-101800-
SOUTHWEST MINNESOTA

CITY           SKY/WX    TMP DP  RH WIND       PRES   REMARKS
FAIRMONT       LGT SNOW   9   5  84 E8        30.38F FOG     WCI  -3
JACKSON        LGT SNOW   9   5  85 E10       30.33F VSB 1   WCI  -6
LUVERNE        LGT SNOW  12   7  79 SE10      30.33S VSB 3/4 WCI  -1
MARSHALL       LGT SNOW   5   0  79 SE7       30.38F WCI  -7
MONTEVIDEO     CLOUDY     3  -2  78 SE3       30.42F
PIPESTONE      LGT SNOW   9   5  85 SE12      30.29S VSB 1   WCI  -6
REDWOOD FALLS  CLOUDY     6  -1  73 SE6       30.40F WCI  -4
TRACY          LGT SNOW   7   3  84 E8        30.35F WCI  -6
WINDOM         LGT SNOW   9   3  78 MISG      30.34F
WORTHINGTON    LGT SNOW   9   5  84 E12       30.32F FOG     WCI  -6
$$

IAZ001>003-012>014-020>022-031-032-NEZ013-014-SDZ071-101800-
NORTHWEST IOWA

CITY           SKY/WX    TMP DP  RH WIND       PRES   REMARKS
CHEROKEE       LGT SNOW  17  14  90 SE6       30.35R WCI   8
DENISON        LGT SNOW  21  19  93 SE8       30.31F WCI  12
ESTHERVILLE    LGT SNOW   9   6  88 E13       30.34F FOG     WCI  -7
LE MARS        LGT SNOW  19  16  86 SE8       30.34F WCI   9
ORANGE CITY    LGT SNOW  16  12  86 SE6       30.31F WCI   7
SHELDON        LGT SNOW  12  10  92 SE12      30.31S VSB 1   WCI  -2
SIOUX CITY     CLOUDY    23  18  81 SE14      30.33S HAZE    WCI  11
SPENCER        LGT SNOW  12   8  84 SE7       30.34F FOG     WCI   1
STORM LAKE     LGT SNOW  16  12  86 SE13      30.32S WCI   2
$$

ABBREVIATIONS USED IN REMARKS
   TC - TEMPERATURE IN CELSIUS
  WCI - WIND CHILL INDEX
   HX - HEAT INDEX
  VSB - VISIBILITY





USA.gov is the U.S. government's official web portal to all federal, state and local government web resources and services.